Wind_Speed
13 13 14 13 12 11 10 10 8 8 6 4 4 5 6 6 7 9 9 10 10 10 10 9 9 9 9 9 9 9 8 8 8 7 7 7 7 8 8 9 9 9 9
13 13 13 13 12 11 10 10 9 8 7 5 4 4 5 5 7 8 9 10 11 11 11 11 10 10 10 10 10 10 10 9 9 9 9 8 9 9 9 10 10 10 11
13 14 14 14 13 12 10 9 8 7 6 6 5 4 5 5 5 7 9 10 11 12 12 11 11 10 10 10 11 11 10 10 10 10 10 9 10 10 11 11 11 11 12
13 14 14 14 13 12 10 9 7 6 6 6 5 5 5 6 6 7 7 10 11 12 12 12 12 11 11 11 11 12 12 12 12 11 11 11 11 12 12 12 12 12 12
12 13 14 13 11 11 10 8 7 7 7 6 6 7 7 6 7 8 8 8 11 12 12 13 13 13 13 12 12 13 13 13 13 13 13 13 13 13 13 13 13 13 14
12 13 13 12 11 11 10 8 7 7 8 8 8 8 8 7 8 8 9 9 10 12 13 14 14 14 14 13 13 13 14 14 15 15 15 15 15 15 15 15 15 16 16
11 12 13 12 12 12 11 9 8 8 9 9 9 8 8 8 8 8 9 10 10 11 12 14 14 15 15 15 15 14 14 15 16 16 17 17 17 17 17 18 18 18 18
11 12 13 13 12 11 10 8 7 7 8 9 9 9 10 9 9 10 10 11 11 12 13 13 14 15 16 16 17 16 16 16 17 18 19 19 19 19 19 19 19 20 20
10 12 12 13 12 11 9 8 8 8 8 9 9 10 9 9 10 10 11 11 12 12 13 14 15 15 15 16 18 18 19 18 18 18 19 20 20 20 20 20 21 21 22
10 11 11 12 10 9 9 8 7 8 9 9 9 9 10 10 10 10 11 12 12 12 13 14 15 16 17 17 17 17 18 19 19 19 19 20 21 22 22 23 23 23 24
10 10 11 10 10 8 8 8 7 8 9 9 9 9 9 10 10 11 12 12 13 13 14 15 14 15 16 17 17 19 19 19 20 20 20 21 21 23 24 24 24 25 25
10 11 11 10 9 8 8 8 8 9 9 9 9 9 9 10 11 12 13 13 14 14 14 15 15 16 16 16 17 18 19 19 20 21 21 22 22 22 23 23 24 25 26
10 11 12 10 10 9 9 9 9 9 10 10 10 10 10 10 11 12 13 14 14 15 15 15 16 15 15 16 17 17 19 19 20 21 22 22 23 23 23 23 24 25 25
11 11 11 11 11 10 10 10 10 10 10 10 10 10 10 10 11 12 13 14 15 15 15 15 15 16 16 17 17 18 19 19 20 20 22 22 23 23 23 24 24 24 25
10 11 12 12 12 11 11 11 10 10 10 10 10 11 11 12 12 13 13 14 15 16 16 16 16 16 17 18 18 19 19 19 20 21 22 23 23 22 23 24 24 25 25
11 12 12 12 13 12 12 11 11 11 11 11 11 12 12 13 13 13 14 15 15 16 16 16 16 17 18 19 19 20 19 20 21 22 22 22 22 23 24 24 25 25 26
14 14 13 14 14 14 13 13 12 12 13 13 13 13 13 14 14 14 14 15 15 15 16 16 17 17 18 19 20 20 20 21 21 21 22 22 23 24 24 24 25 26 27
16 16 15 15 15 15 14 14 13 14 14 14 15 14 14 15 15 15 16 16 16 16 17 17 18 19 19 19 20 20 21 21 21 22 23 23 24 24 24 24 25 26 27
17 18 17 16 16 16 16 15 15 15 16 16 16 16 16 16 16 16 17 17 17 17 17 18 19 19 20 20 20 20 21 21 22 23 24 24 25 24 25 25 25 26 26
19 19 19 18 17 17 17 17 17 17 17 18 18 18 18 18 18 18 18 18 18 18 18 18 19 20 20 20 21 21 22 23 23 23 24 24 24 24 25 26 26 27 27
20 20 20 20 20 20 20 20 19 19 20 20 21 21 20 20 20 20 20 20 19 20 20 20 20 21 21 22 22 22 23 24 24 25 25 25 25 26 27 27 27 27 27
23 23 23 22 22 22 22 22 22 22 22 22 23 22 22 22 22 22 22 21 22 22 22 22 22 22 23 23 24 24 24 25 25 26 26 26 26 27 27 27 27 27 28
25 25 25 24 24 24 24 24 24 24 24 24 24 24 24 24 23 23 23 23 23 24 24 24 24 24 24 24 25 25 25 26 26 26 26 26 26 27 27 27 27 27 28
27 27 27 27 26 26 26 26 26 26 26 26 25 25 25 25 24 24 24 25 25 25 25 26 26 26 25 25 25 26 26 26 26 26 27 27 27 27 26 26 26 27 28
29 29 30 29 29 29 28 28 28 28 28 27 27 27 27 27 26 26 26 26 27 27 27 27 28 28 27 27 27 27 27 27 27 28 28 28 27 26 26 26 27 28 30
31 31 31 31 31 31 30 31 31 31 29 28 28 28 28 28 28 28 28 28 28 28 28 28 28 28 28 28 28 28 28 28 28 28 28 27 27 27 27 27 28 29 30
Wind_Direction
340 340 342 343 339 337 337 336 332 325 322 312 285 258 249 238 234 228 228 223 221 223 227 229 231 231 233 236 233 232 234 238 242 248 254 260 265 268 268 270 270 271 271
336 337 337 337 335 331 329 331 327 324 319 309 300 277 250 241 241 233 229 228 226 226 226 229 234 235 239 241 240 239 241 244 247 251 255 261 264 267 270 272 273 273 273
328 332 331 329 329 323 321 322 320 320 317 312 308 290 262 257 243 240 232 230 229 228 227 230 236 237 240 245 247 246 245 246 249 253 257 262 267 269 271 272 273 274 276
320 327 328 324 322 320 317 321 319 315 311 310 307 299 280 268 259 255 243 236 231 230 232 238 239 240 245 249 250 249 248 250 253 256 260 264 268 269 270 272 276 277 278
313 320 322 323 322 318 314 314 315 309 303 304 305 297 279 265 260 256 253 251 241 236 241 243 243 244 248 251 253 252 252 253 255 257 261 265 269 270 271 272 275 276 277
309 316 319 320 318 314 306 307 307 305 301 295 297 300 284 274 264 256 257 258 251 244 247 247 250 251 253 257 256 253 255 256 257 260 262 265 268 269 271 272 273 275 276
305 311 314 316 315 310 301 300 302 305 304 297 295 296 288 280 271 267 264 263 259 254 252 254 253 252 256 258 254 255 258 260 261 263 265 267 267 268 270 271 273 274 274
304 309 312 312 313 311 304 299 301 304 305 299 294 289 283 279 275 274 271 269 268 262 257 256 257 257 257 257 255 256 259 261 264 266 267 266 266 267 268 271 273 274 275
308 310 312 316 314 310 305 301 298 298 304 301 294 290 277 274 273 275 276 274 272 268 263 259 260 260 261 260 259 259 260 261 265 268 268 267 268 267 269 270 273 274 274
306 312 315 320 317 311 306 301 296 296 300 299 296 291 279 270 271 273 276 274 272 270 269 267 265 262 263 263 262 263 263 264 265 266 268 269 270 271 270 270 273 275 275
299 308 318 322 322 316 310 307 303 299 301 301 298 290 284 278 277 278 280 280 278 274 273 270 269 270 268 264 265 266 266 265 266 266 268 270 271 273 270 270 273 274 275
298 302 310 316 322 320 313 310 307 306 303 298 294 289 287 283 281 279 282 283 281 276 273 270 272 273 271 267 267 269 268 269 269 269 271 273 272 272 271 272 273 274 275
295 298 301 306 313 315 311 309 306 305 301 295 292 289 287 287 286 284 285 285 283 278 274 275 274 273 271 271 272 273 273 271 271 272 273 275 275 273 273 273 275 275 276
290 295 298 299 304 309 308 309 309 307 305 299 295 292 291 291 290 289 288 287 286 283 280 277 274 272 272 274 275 278 278 276 275 275 274 275 277 277 276 275 276 277 277
287 293 297 299 298 303 306 304 302 302 303 304 303 298 295 293 293 293 291 287 284 283 283 279 276 274 274 276 278 280 279 278 277 277 277 277 277 278 279 278 278 278 278
286 292 296 297 297 300 303 302 298 297 300 302 300 297 294 294 294 294 291 291 289 285 282 278 276 277 279 280 280 280 279 279 280 280 279 280 279 280 281 280 280 281 281
284 289 293 295 295 298 301 301 297 294 294 296 298 298 296 295 293 293 292 292 291 287 281 278 277 280 281 279 280 281 281 279 280 281 282 284 283 283 283 283 282 283 283
280 284 289 291 292 295 298 298 298 297 294 295 297 297 295 294 293 292 292 292 290 288 285 280 279 279 281 282 283 283 283 283 284 285 286 286 285 284 284 286 287 288 288
275 280 284 288 292 294 295 295 295 297 296 296 296 295 294 294 293 293 292 293 292 290 287 282 282 282 282 283 285 284 284 285 286 286 287 288 288 286 287 289 289 290 290
271 275 280 283 287 290 293 294 296 296 295 296 295 294 292 292 291 291 292 291 292 292 290 286 285 285 284 284 284 284 285 285 286 287 289 290 289 288 290 292 292 291 292
268 271 275 279 282 287 291 293 293 294 293 296 295 293 292 291 290 289 289 289 289 290 289 287 285 285 283 283 284 285 285 285 285 286 288 289 288 287 289 291 292 292 293
266 269 272 275 279 283 287 290 291 292 292 293 294 290 289 289 289 288 286 286 286 288 288 288 287 286 285 285 285 285 286 287 288 288 289 289 289 289 290 291 292 293 293
265 267 270 272 276 280 282 286 287 288 290 292 293 290 287 288 288 287 285 284 285 286 287 288 286 285 285 285 286 286 286 286 287 288 289 291 291 291 291 292 294 295 294
264 266 269 271 275 279 281 283 286 286 286 288 290 290 288 287 286 286 286 286 286 285 285 286 286 284 284 284 284 285 286 288 289 290 291 293 292 292 293 294 294 294 296
263 265 267 270 273 276 278 280 283 285 285 284 285 287 288 286 285 286 285 286 286 286 285 285 285 284 284 284 285 287 287 288 291 291 292 293 293 293 293 293 293 294 296
261 264 266 267 270 272 275 278 281 281 281 281 283 285 286 286 285 285 285 284 285 285 284 284 284 284 283 283 284 286 287 288 290 290 292 293 293 293 293 294 295 296 297
Height
5912 5910 5907 5904 5902 5900 5898 5897 5896 5894 5894 5893 5893 5893 5893 5893 5894 5895 5896 5897 5898 5899 5900 5901 5902 5903 5904 5905 5905 5906 5906 5907 5907 5908 5908 5908 5907 5908 5908 5907 5907 5907 5907
5912 5909 5906 5904 5902 5900 5898 5896 5895 5894 5894 5893 5892 5892 5892 5892 5893 5893 5894 5895 5896 5897 5898 5899 5900 5901 5902 5903 5903 5904 5904 5905 5905 5906 5906 5906 5906 5906 5906 5906 5905 5905 5905
5911 5908 5905 5903 5900 5898 5897 5896 5894 5893 5893 5892 5891 5891 5891 5891 5891 5892 5892 5893 5894 5895 5896 5897 5898 5899 5900 5900 5901 5902 5902 5903 5903 5904 5904 5904 5904 5904 5904 5903 5903 5903 5902
5910 5907 5904 5901 5899 5897 5896 5895 5893 5892 5892 5891 5891 5890 5890 5890 5890 5890 5890 5891 5892 5892 5893 5894 5895 5896 5897 5898 5899 5899 5900 5900 5901 5901 5902 5902 5902 5902 5901 5901 5900 5900 5900
5908 5906 5903 5900 5898 5896 5894 5893 5893 5892 5891 5890 5890 5889 5889 5888 5889 5889 5889 5889 5890 5890 5891 5892 5893 5894 5895 5896 5896 5897 5897 5897 5898 5898 5899 5899 5899 5899 5899 5898 5898 5897 5897
5906 5904 5902 5899 5897 5895 5893 5892 5891 5890 5890 5889 5889 5888 5887 5887 5887 5887 5887 5887 5887 5888 5889 5890 5891 5891 5892 5893 5893 5893 5894 5894 5895 5895 5895 5896 5896 5896 5895 5895 5894 5894 5893
5904 5902 5900 5897 5895 5893 5892 5891 5890 5889 5888 5888 5887 5886 5886 5885 5885 5885 5885 5885 5885 5886 5886 5887 5888 5888 5889 5889 5890 5890 5891 5891 5891 5891 5892 5892 5892 5892 5892 5891 5891 5890 5889
5902 5900 5898 5895 5893 5892 5890 5889 5888 5887 5887 5886 5885 5884 5884 5884 5883 5883 5883 5883 5883 5883 5883 5884 5885 5885 5886 5886 5886 5887 5887 5887 5887 5887 5887 5888 5887 5887 5887 5887 5886 5886 5885
5900 5898 5896 5893 5891 5889 5888 5887 5886 5886 5885 5884 5883 5882 5881 5881 5881 5881 5881 5881 5881 5880 5880 5880 5881 5882 5882 5882 5882 5883 5883 5883 5883 5883 5883 5883 5883 5883 5882 5882 5882 5881 5880
5898 5896 5894 5892 5889 5888 5886 5885 5885 5884 5883 5882 5881 5879 5879 5879 5879 5879 5878 5878 5878 5877 5877 5877 5877 5878 5878 5878 5878 5878 5878 5879 5879 5878 5878 5878 5878 5878 5877 5877 5876 5876 5875
5896 5894 5892 5890 5888 5886 5885 5884 5883 5882 5881 5879 5878 5878 5877 5876 5876 5876 5876 5875 5874 5874 5874 5874 5874 5874 5874 5874 5874 5874 5874 5874 5874 5874 5874 5873 5873 5872 5872 5871 5871 5870 5869
5894 5893 5891 5889 5887 5885 5884 5883 5882 5880 5879 5878 5877 5876 5875 5874 5874 5873 5873 5872 5871 5871 5870 5870 5870 5870 5870 5870 5870 5870 5869 5869 5869 5869 5868 5868 5867 5866 5866 5865 5865 5864 5863
5892 5891 5889 5887 5886 5884 5883 5881 5880 5878 5877 5876 5875 5874 5873 5872 5871 5871 5870 5869 5868 5867 5867 5867 5866 5866 5866 5866 5865 5865 5864 5864 5864 5863 5863 5862 5861 5861 5860 5859 5859 5857 5856
5890 5889 5887 5886 5884 5882 5881 5879 5878 5876 5875 5874 5872 5871 5870 5870 5869 5868 5867 5866 5865 5864 5863 5863 5862 5862 5862 5861 5861 5860 5860 5859 5859 5858 5857 5856 5856 5855 5854 5853 5852 5851 5850
5887 5886 5885 5883 5882 5880 5879 5877 5876 5874 5873 5872 5871 5869 5868 5867 5866 5865 5864 5863 5862 5861 5860 5858 5858 5857 5857 5857 5856 5855 5854 5854 5853 5852 5852 5851 5850 5849 5848 5847 5846 5845 5844
5884 5883 5882 5881 5879 5878 5876 5875 5873 5872 5871 5869 5868 5867 5865 5864 5863 5862 5861 5859 5858 5857 5855 5855 5854 5853 5852 5852 5851 5850 5849 5849 5848 5847 5846 5845 5844 5843 5841 5840 5839 5838 5837
5881 5880 5879 5878 5876 5875 5873 5872 5870 5869 5868 5867 5865 5864 5862 5861 5860 5858 5857 5856 5854 5853 5852 5851 5850 5849 5848 5848 5847 5845 5844 5843 5842 5841 5840 5839 5838 5836 5835 5834 5832 5831 5829
5877 5876 5875 5874 5873 5872 5870 5869 5867 5866 5865 5864 5862 5861 5859 5858 5856 5855 5854 5852 5850 5849 5848 5847 5846 5845 5844 5843 5842 5841 5840 5839 5837 5836 5835 5833 5832 5830 5829 5827 5825 5824 5822
5872 5872 5871 5870 5869 5868 5867 5865 5864 5863 5861 5860 5858 5857 5855 5854 5852 5851 5850 5848 5846 5845 5843 5842 5841 5840 5839 5838 5837 5836 5835 5833 5832 5830 5829 5827 5826 5824 5822 5820 5818 5817 5815
5867 5867 5866 5866 5865 5864 5863 5862 5860 5859 5857 5856 5854 5853 5851 5850 5848 5847 5845 5843 5842 5841 5839 5838 5837 5836 5834 5833 5832 5831 5829 5828 5826 5824 5823 5821 5819 5818 5816 5814 5812 5810 5807
5862 5862 5861 5861 5860 5859 5858 5857 5856 5854 5853 5852 5850 5848 5847 5845 5844 5842 5841 5839 5837 5836 5835 5833 5832 5831 5829 5828 5826 5825 5823 5822 5820 5819 5817 5815 5813 5811 5809 5807 5805 5803 5800
5855 5856 5855 5855 5855 5854 5853 5852 5851 5849 5847 5846 5844 5843 5842 5840 5838 5837 5835 5834 5832 5831 5830 5828 5826 5825 5823 5822 5820 5819 5817 5816 5814 5812 5810 5808 5806 5804 5802 5800 5798 5795 5793
5849 5849 5849 5849 5848 5848 5847 5846 5845 5843 5842 5841 5839 5837 5836 5834 5832 5831 5829 5828 5827 5825 5824 5822 5821 5819 5817 5816 5814 5812 5810 5809 5807 5805 5803 5801 5799 5797 5795 5793 5790 5788 5785
5841 5842 5842 5842 5842 5841 5840 5840 5838 5837 5836 5834 5833 5831 5830 5828 5826 5825 5823 5822 5820 5819 5817 5816 5814 5812 5811 5809 5807 5806 5804 5802 5800 5798 5796 5794 5792 5790 5787 5785 5783 5780 5778
5834 5834 5834 5834 5834 5834 5833 5833 5832 5830 5829 5828 5826 5825 5824 5822 5820 5818 5816 5815 5813 5812 5810 5809 5807 5805 5804 5802 5800 5799 5797 5795 5793 5791 5789 5786 5784 5782 5780 5777 5775 5773 5770
5825 5826 5826 5826 5826 5825 5825 5825 5824 5823 5822 5820 5819 5818 5816 5815 5813 5811 5809 5807 5806 5804 5803 5801 5800 5798 5796 5794 5793 5791 5789 5787 5785 5783 5781 5779 5777 5774 5772 5770 5767 5764 5762